Weather reports worldwide

Advertisment
Faßberg, Germany (10246): temperature & dewpoint: 10.09.2019 05:00:00 - 16.09.2019 05:00:00 (CEST)Faßberg, Germany (10246): wind speed & gusts: 10.09.2019 05:00:00 - 16.09.2019 05:00:00 (CEST)Faßberg, Germany (10246): wind direction: 10.09.2019 05:00:00 - 16.09.2019 05:00:00 (CEST)Faßberg, Germany (10246): reduced air pressure: 10.09.2019 05:00:00 - 16.09.2019 05:00:00 (CEST)Faßberg, Germany (10246): visibility: 10.09.2019 05:00:00 - 16.09.2019 05:00:00 (CEST)
Date & Time tt [°C] td [°C] ff [km/h] ff [kn] fx [km/h] fx [kn] dd ppp [hPa] vv [km]
16.09.2019 05:00:00 - - - - - - - - -
16.09.2019 04:00:00 12,1 10,6 11 6 - - W 1020,1 20
16.09.2019 03:00:00 12,5 10,4 7 4 - - WNW 1020,4 20
16.09.2019 02:00:00 12,5 10,9 11 6 - - W 1020,6 15
16.09.2019 01:00:00 12,6 11,0 7 4 - - W 1020,7 15
16.09.2019 00:00:00 13,1 11,5 7 4 - - WNW 1020,6 15
15.09.2019 23:00:00 13,7 11,9 11 6 - - WNW 1020,1 15
15.09.2019 22:00:00 13,9 12,3 14 8 - - NW 1019,9 15
15.09.2019 21:00:00 14,7 13,1 14 8 - - NW 1019,9 15
15.09.2019 20:00:00 15,2 13,7 22 12 - - NW 1019,5 8
15.09.2019 19:00:00 15,7 14,4 18 10 47 25 NW 1019,5 4,5
15.09.2019 18:00:00 18,8 12,7 26 14 - - NNW 1019,1 7
15.09.2019 17:00:00 21,2 10,6 22 12 - - WNW 1018,6 30
15.09.2019 16:00:00 22,0 9,6 29 16 - - WNW 1018,4 40
15.09.2019 15:00:00 22,4 6,5 25 14 47 25 WNW 1018,6 40
15.09.2019 14:00:00 22,1 4,8 29 16 - - W 1019,4 40
15.09.2019 13:00:00 20,2 6,5 25 14 - - WNW 1020,1 40
15.09.2019 12:00:00 17,9 6,4 22 12 - - W 1020,3 40
15.09.2019 11:00:00 15,6 6,5 22 12 - - W 1020,9 40
15.09.2019 10:00:00 13,0 6,3 18 10 - - W 1021,4 40
15.09.2019 09:00:00 9,7 5,3 18 10 - - WSW 1021,8 40
15.09.2019 08:00:00 8,0 4,8 14 8 - - WSW 1021,9 40
15.09.2019 07:00:00 7,6 4,7 14 8 - - WSW 1022,5 40
15.09.2019 06:00:00 7,7 4,7 14 8 - - WSW 1022,8 40
15.09.2019 05:00:00 4,3 2,8 4 2 - - WSW 1023,8 40
15.09.2019 04:00:00 4,5 3,4 4 2 - - W 1024,5 40
15.09.2019 03:00:00 5,1 3,3 0 0 - - N 1025,6 40
15.09.2019 02:00:00 5,5 4,3 0 0 - - N 1026,3 40
15.09.2019 01:00:00 5,0 3,7 4 2 - - S 1027,1 40
15.09.2019 00:00:00 5,7 4,2 4 2 - - S 1028,0 40
14.09.2019 23:00:00 6,8 4,9 4 2 - - ESE 1029,0 40
14.09.2019 22:00:00 9,1 5,5 4 2 - - N 1029,6 40
14.09.2019 21:00:00 11,3 6,3 4 2 - - N 1030,0 40
14.09.2019 20:00:00 13,9 5,4 4 2 - - N 1029,9 40
14.09.2019 19:00:00 17,6 4,9 11 6 - - SW 1030,1 40
14.09.2019 18:00:00 17,7 4,8 4 2 - - N 1030,4 40
14.09.2019 17:00:00 17,9 4,6 7 4 - - W 1031,2 40
14.09.2019 16:00:00 17,6 4,3 7 4 - - SW 1032,2 40
14.09.2019 15:00:00 18,3 4,6 14 8 - - SW 1032,9 40
14.09.2019 14:00:00 16,6 5,0 11 6 - - W 1033,8 30
14.09.2019 13:00:00 16,3 6,1 7 4 - - NNW 1034,2 25
14.09.2019 12:00:00 16,2 6,1 7 4 - - SW 1034,9 25
14.09.2019 11:00:00 15,3 8,0 7 4 - - W 1035,3 20
14.09.2019 10:00:00 12,0 7,9 4 2 - - WNW 1035,7 20
14.09.2019 09:00:00 7,6 5,7 4 2 - - N 1035,5 20
14.09.2019 08:00:00 2,6 1,6 4 2 - - N 1035,8 9
14.09.2019 07:00:00 1,8 1,0 4 2 - - N 1035,4 8
14.09.2019 06:00:00 2,5 1,6 0 0 - - N 1035,6 13
14.09.2019 05:00:00 3,2 2,5 4 2 - - ENE 1035,5 12
14.09.2019 04:00:00 3,8 3,1 0 0 - - N 1035,5 1,3
14.09.2019 03:00:00 3,8 3,1 4 2 - - N 1035,4 10
14.09.2019 02:00:00 5,1 4,4 4 2 - - E 1035,5 0,4
14.09.2019 01:00:00 6,1 4,9 4 2 - - SSE 1035,3 3,5
14.09.2019 00:00:00 7,8 6,1 4 2 - - W 1035,2 9
13.09.2019 23:00:00 8,5 6,1 4 2 - - N 1034,7 9
13.09.2019 22:00:00 11,4 6,9 7 4 - - NW 1034,2 9
13.09.2019 21:00:00 12,9 6,5 11 6 - - NNW 1034,1 9
13.09.2019 20:00:00 14,7 5,7 7 4 - - NNW 1033,2 35
13.09.2019 19:00:00 16,4 5,3 14 8 - - N 1032,5 35
13.09.2019 18:00:00 17,3 5,6 18 10 - - N 1032,1 35
13.09.2019 17:00:00 18,4 6,4 25 14 - - NNW 1031,6 30
13.09.2019 16:00:00 18,8 7,0 25 14 - - NNW 1031,1 30
13.09.2019 15:00:00 19,3 7,6 25 14 - - NNW 1030,8 30
13.09.2019 14:00:00 18,6 9,1 25 14 - - NNW 1030,4 30
13.09.2019 13:00:00 18,6 11,6 18 10 - - N 1029,8 30
13.09.2019 12:00:00 17,5 13,4 22 12 - - N 1029,2 9
13.09.2019 11:00:00 16,2 14,3 25 14 - - NNW 1028,6 7
13.09.2019 10:00:00 17,5 15,7 18 10 - - WNW 1027,4 7
13.09.2019 09:00:00 17,9 14,8 18 10 - - W 1026,6 15
13.09.2019 08:00:00 17,5 14,3 18 10 - - W 1026,2 15
13.09.2019 07:00:00 17,1 13,8 18 10 - - W 1025,7 10
13.09.2019 06:00:00 16,5 13,2 14 8 - - WSW 1025,3 10
13.09.2019 05:00:00 16,2 12,9 11 6 - - WSW 1025,3 15
13.09.2019 04:00:00 15,9 12,7 11 6 - - W 1025,8 15
13.09.2019 03:00:00 15,7 12,3 11 6 - - WSW 1026,0 15
13.09.2019 02:00:00 15,6 12,3 14 8 - - WSW 1026,1 15
13.09.2019 01:00:00 15,9 12,5 11 6 - - WSW 1026,3 15
13.09.2019 00:00:00 16,6 13,0 11 6 - - W 1026,3 15
12.09.2019 23:00:00 16,7 13,2 11 6 - - WSW 1026,3 15
12.09.2019 22:00:00 14,7 12,6 4 2 - - SW 1026,7 15
12.09.2019 21:00:00 15,1 12,3 4 2 - - SSW 1026,6 20
12.09.2019 20:00:00 18,0 12,4 7 4 - - WNW 1026,4 20
12.09.2019 19:00:00 20,1 12,3 11 6 - - WNW 1026,1 20
12.09.2019 18:00:00 20,8 12,3 14 8 - - WNW 1026,2 20
12.09.2019 17:00:00 20,7 12,3 18 10 - - NNW 1026,1 20
12.09.2019 16:00:00 21,2 12,5 14 8 - - WNW 1026,2 20
12.09.2019 15:00:00 20,6 12,5 18 10 - - NW 1026,2 20
12.09.2019 14:00:00 20,3 13,1 18 10 - - NW 1026,2 20
12.09.2019 13:00:00 19,8 13,3 18 10 - - W 1026,3 15
12.09.2019 12:00:00 18,4 14,2 14 8 - - W 1026,5 9
12.09.2019 11:00:00 17,3 14,2 18 10 - - W 1026,3 7
12.09.2019 10:00:00 16,3 14,3 18 10 - - WSW 1025,5 5
12.09.2019 09:00:00 16,0 14,6 11 6 - - W 1025,2 5
12.09.2019 08:00:00 14,6 13,9 11 6 - - WSW 1024,5 4,0
12.09.2019 07:00:00 14,5 13,7 14 8 - - WSW 1024,1 3,0
12.09.2019 06:00:00 14,5 13,7 14 8 - - W 1023,4 3,0
12.09.2019 05:00:00 14,3 13,5 14 8 - - WSW 1023,2 4,0
12.09.2019 04:00:00 14,1 13,3 14 8 - - WSW 1022,9 2,5
12.09.2019 03:00:00 13,9 13,0 13 7 - - W 1022,8 1,6
12.09.2019 02:00:00 13,8 12,7 14 8 - - WSW 1022,4 6
12.09.2019 01:00:00 13,4 12,5 18 10 - - WSW 1022,0 6
12.09.2019 00:00:00 13,2 12,2 18 10 - - WSW 1021,9 7
11.09.2019 23:00:00 13,1 12,0 22 12 - - WSW 1021,6 8
11.09.2019 22:00:00 13,2 12,1 22 12 - - WSW 1021,5 6
11.09.2019 21:00:00 13,5 11,7 25 14 - - W 1021,4 4,0
11.09.2019 20:00:00 14,9 11,8 22 12 - - W 1020,7 5
11.09.2019 19:00:00 18,5 8,5 22 12 - - W 1019,9 20
11.09.2019 18:00:00 19,6 7,4 18 10 - - W 1019,4 20
11.09.2019 17:00:00 19,7 6,8 18 10 - - WSW 1019,3 20
11.09.2019 16:00:00 20,4 6,4 25 14 47 25 WSW 1019,5 20
11.09.2019 15:00:00 21,5 6,1 29 16 - - W 1019,6 20
11.09.2019 14:00:00 21,0 5,9 29 16 - - WSW 1019,8 20
11.09.2019 13:00:00 20,0 5,8 29 16 - - WSW 1020,0 20
11.09.2019 12:00:00 18,6 7,8 22 12 - - SW 1020,5 20
11.09.2019 11:00:00 15,7 7,4 18 10 - - SW 1021,1 20
11.09.2019 10:00:00 14,3 7,5 11 6 - - SW 1021,2 20
11.09.2019 09:00:00 10,9 7,8 7 4 - - SSW 1021,1 15
11.09.2019 08:00:00 6,2 5,5 4 2 - - S 1021,1 10
11.09.2019 07:00:00 4,9 4,2 4 2 - - N 1020,9 15
11.09.2019 06:00:00 5,8 4,6 4 2 - - SSW 1020,7 30
11.09.2019 05:00:00 7,6 6,5 4 2 - - N 1020,8 30
11.09.2019 04:00:00 4,4 3,7 4 2 - - N 1020,9 30
11.09.2019 03:00:00 5,6 4,9 4 2 - - S 1020,6 30
11.09.2019 02:00:00 6,2 5,4 0 0 - - N 1020,5 30
11.09.2019 01:00:00 6,3 5,4 4 2 - - SSW 1020,4 30
11.09.2019 00:00:00 7,9 5,1 4 2 - - SW 1020,0 30
10.09.2019 23:00:00 8,4 6,2 4 2 - - WSW 1019,4 30
10.09.2019 22:00:00 10,8 6,7 7 4 - - WSW 1018,9 30
10.09.2019 21:00:00 14,0 6,8 7 4 - - W 1018,5 30
10.09.2019 20:00:00 15,7 6,5 11 6 - - W 1017,7 30
10.09.2019 19:00:00 17,3 7,1 14 8 - - WNW 1017,4 30
10.09.2019 18:00:00 17,9 6,9 22 12 - - NW 1016,8 30
10.09.2019 17:00:00 18,5 5,5 22 12 - - WNW 1016,3 30
10.09.2019 16:00:00 17,4 5,9 22 12 - - WNW 1016,2 30
10.09.2019 15:00:00 17,2 5,9 25 14 - - NW 1016,0 30
10.09.2019 14:00:00 17,5 5,7 25 14 - - NW 1015,8 30
10.09.2019 13:00:00 16,8 6,1 22 12 - - WNW 1015,8 30
10.09.2019 12:00:00 16,5 7,5 25 14 - - WNW 1015,5 30
10.09.2019 11:00:00 15,1 8,2 25 14 - - WNW 1015,4 25
10.09.2019 10:00:00 13,2 8,6 18 10 - - WNW 1015,3 25
10.09.2019 09:00:00 11,2 8,2 14 8 - - W 1014,8 20
10.09.2019 08:00:00 9,6 8,2 7 4 - - WSW 1014,6 20
10.09.2019 07:00:00 9,3 7,9 11 6 - - W 1014,3 25
10.09.2019 06:00:00 9,6 8,3 14 8 - - WNW 1013,8 25
10.09.2019 05:00:00 9,9 8,8 11 6 - - WNW 1013,6 10

tt = temperature
td = dewpoint
ff = wind speed
fx = gusts
dd = wind direction
ppp = reduced air pressure
vv = visibility

Next stations